Time,TemperatureF,DewpointF,PressureIn,WindDirection,WindDirectionDegrees,WindSpeedMPH,WindSpeedGustMPH,Humidity,HourlyPrecipIn,Conditions,Clouds,dailyrainin,SoftwareType,DateUTC
2013-07-17 00:09:00,73.8,64.2,30.14,SSE,157,2.7,-999.0,72,-99.99,,,0.00,Acu-Link.com,2013-07-17 05:09:00,
2013-07-17 00:25:00,73.6,64.4,30.15,South,180,2.7,-999.0,73,-99.99,,,0.00,Acu-Link.com,2013-07-17 05:25:00,
2013-07-17 00:40:00,72.7,63.9,30.14,South,180,2.7,-999.0,74,-99.99,,,0.00,Acu-Link.com,2013-07-17 05:40:00,
2013-07-17 00:55:00,72.5,63.7,30.15,SSW,202,1.7,-999.0,74,-99.99,,,0.00,Acu-Link.com,2013-07-17 05:55:00,
2013-07-17 01:11:00,72.5,63.7,30.15,SSW,202,1.7,-999.0,74,-99.99,,,0.00,Acu-Link.com,2013-07-17 06:11:00,
2013-07-17 01:26:00,72.7,63.9,30.17,SSE,157,3.2,-999.0,74,-99.99,,,0.00,Acu-Link.com,2013-07-17 06:26:00,
2013-07-17 01:41:00,72.7,63.9,30.16,SSW,202,3.2,-999.0,74,-99.99,,,0.00,Acu-Link.com,2013-07-17 06:41:00,
2013-07-17 01:57:00,72.1,63.7,30.16,SSW,202,2.7,-999.0,75,-99.99,,,0.00,Acu-Link.com,2013-07-17 06:57:00,
2013-07-17 02:12:00,71.8,63.8,30.17,SSW,202,3.2,-999.0,76,-99.99,,,0.00,Acu-Link.com,2013-07-17 07:12:00,
2013-07-17 02:27:00,71.4,63.4,30.16,SSW,202,2.2,-999.0,76,-99.99,,,0.00,Acu-Link.com,2013-07-17 07:27:00,
2013-07-17 02:42:00,71.1,63.5,30.16,South,180,1.7,-999.0,77,-99.99,,,0.00,Acu-Link.com,2013-07-17 07:42:00,
2013-07-17 02:58:00,70.9,63.3,30.16,SSE,157,1.7,-999.0,77,-99.99,,,0.00,Acu-Link.com,2013-07-17 07:58:00,
2013-07-17 03:13:00,70.7,63.5,30.17,SSE,157,1.7,-999.0,78,-99.99,,,0.00,Acu-Link.com,2013-07-17 08:13:00,
2013-07-17 03:29:00,70.5,63.3,30.17,SSE,157,2.2,-999.0,78,-99.99,,,0.00,Acu-Link.com,2013-07-17 08:29:00,
2013-07-17 03:44:00,70.5,63.3,30.16,South,180,1.7,-999.0,78,-99.99,,,0.00,Acu-Link.com,2013-07-17 08:44:00,
2013-07-17 03:59:00,70.3,63.1,30.16,ESE,112,2.7,-999.0,78,-99.99,,,0.00,Acu-Link.com,2013-07-17 08:59:00,
2013-07-17 04:14:00,70.9,63.7,30.17,SSE,157,2.2,-999.0,78,-99.99,,,0.00,Acu-Link.com,2013-07-17 09:14:00,
2013-07-17 04:29:00,70.2,63.0,30.17,South,180,3.2,-999.0,78,-99.99,,,0.00,Acu-Link.com,2013-07-17 09:29:00,
2013-07-17 04:44:00,69.8,63.0,30.17,South,180,2.7,-999.0,79,-99.99,,,0.00,Acu-Link.com,2013-07-17 09:44:00,
2013-07-17 04:59:00,69.6,62.8,30.17,South,180,2.7,-999.0,79,-99.99,,,0.00,Acu-Link.com,2013-07-17 09:59:00,
2013-07-17 05:14:00,69.3,62.9,30.17,SSE,157,2.7,-999.0,80,-99.99,,,0.00,Acu-Link.com,2013-07-17 10:14:00,
2013-07-17 05:30:00,69.3,62.9,30.17,SSE,157,2.2,-999.0,80,-99.99,,,0.00,Acu-Link.com,2013-07-17 10:30:00,
2013-07-17 05:45:00,68.9,62.8,30.17,SE,135,1.7,-999.0,81,-99.99,,,0.00,Acu-Link.com,2013-07-17 10:45:00,
2013-07-17 06:00:00,69.1,63.0,30.17,SE,135,2.7,-999.0,81,-99.99,,,0.00,Acu-Link.com,2013-07-17 11:00:00,
2013-07-17 06:15:00,69.4,63.3,30.17,South,180,2.2,-999.0,81,-99.99,,,0.00,Acu-Link.com,2013-07-17 11:15:00,
2013-07-17 06:31:00,70.0,63.9,30.17,South,180,2.7,-999.0,81,-99.99,,,0.00,Acu-Link.com,2013-07-17 11:31:00,
2013-07-17 06:46:00,70.0,63.9,30.18,SSE,157,2.2,-999.0,81,-99.99,,,0.00,Acu-Link.com,2013-07-17 11:46:00,
2013-07-17 07:01:00,71.6,64.7,30.17,South,180,2.7,-999.0,79,-99.99,,,0.00,Acu-Link.com,2013-07-17 12:01:00,
2013-07-17 07:17:00,73.6,65.6,30.18,SSE,157,2.2,-999.0,76,-99.99,,,0.00,Acu-Link.com,2013-07-17 12:17:00,
2013-07-17 07:32:00,75.0,66.1,30.18,SSE,157,3.2,-999.0,74,-99.99,,,0.00,Acu-Link.com,2013-07-17 12:32:00,
2013-07-17 07:47:00,75.7,66.8,30.18,SSE,157,3.2,-999.0,74,-99.99,,,0.00,Acu-Link.com,2013-07-17 12:47:00,
2013-07-17 08:02:00,76.6,66.9,30.18,South,180,2.7,-999.0,72,-99.99,,,0.00,Acu-Link.com,2013-07-17 13:02:00,
2013-07-17 08:17:00,77.5,66.9,30.19,South,180,5.8,-999.0,70,-99.99,,,0.00,Acu-Link.com,2013-07-17 13:17:00,
2013-07-17 08:32:00,79.0,67.5,30.18,SSW,202,4.2,-999.0,68,-99.99,,,0.00,Acu-Link.com,2013-07-17 13:32:00,
2013-07-17 08:48:00,79.3,67.4,30.18,South,180,4.2,-999.0,67,-99.99,,,0.00,Acu-Link.com,2013-07-17 13:48:00,
2013-07-17 09:03:00,82.4,68.0,30.18,SSW,202,4.2,-999.0,62,-99.99,,,0.00,Acu-Link.com,2013-07-17 14:03:00,
2013-07-17 09:18:00,82.8,68.4,30.18,SSW,202,5.8,-999.0,62,-99.99,,,0.00,Acu-Link.com,2013-07-17 14:18:00,
2013-07-17 09:33:00,82.9,68.0,30.18,SSW,202,4.2,-999.0,61,-99.99,,,0.00,Acu-Link.com,2013-07-17 14:33:00,
2013-07-17 09:48:00,84.4,68.5,30.18,South,180,5.3,-999.0,59,-99.99,,,0.00,Acu-Link.com,2013-07-17 14:48:00,
2013-07-17 10:03:00,84.0,68.1,30.18,South,180,6.8,-999.0,59,-99.99,,,0.00,Acu-Link.com,2013-07-17 15:03:00,
2013-07-17 10:19:00,84.6,67.7,30.18,SSE,157,5.8,-999.0,57,-99.99,,,0.00,Acu-Link.com,2013-07-17 15:19:00,
2013-07-17 10:34:00,84.7,67.2,30.18,SSW,202,8.3,-999.0,56,-99.99,,,0.00,Acu-Link.com,2013-07-17 15:34:00,
2013-07-17 10:49:00,85.6,68.1,30.17,SE,135,5.8,-999.0,56,-99.99,,,0.00,Acu-Link.com,2013-07-17 15:49:00,
2013-07-17 11:04:00,86.0,67.9,30.18,SE,135,5.3,-999.0,55,-99.99,,,0.00,Acu-Link.com,2013-07-17 16:04:00,
2013-07-17 11:19:00,86.9,68.2,30.18,SSE,157,7.8,-999.0,54,-99.99,,,0.00,Acu-Link.com,2013-07-17 16:19:00,
2013-07-17 11:34:00,87.1,67.9,30.18,SSW,202,7.3,-999.0,53,-99.99,,,0.00,Acu-Link.com,2013-07-17 16:34:00,
2013-07-17 11:49:00,87.4,68.1,30.16,South,180,9.9,-999.0,53,-99.99,,,0.00,Acu-Link.com,2013-07-17 16:49:00,
2013-07-17 12:04:00,88.0,68.7,30.17,SSW,202,5.8,-999.0,53,-99.99,,,0.00,Acu-Link.com,2013-07-17 17:04:00,
2013-07-17 12:19:00,88.2,68.9,30.16,SSE,157,8.9,-999.0,53,-99.99,,,0.00,Acu-Link.com,2013-07-17 17:19:00,
2013-07-17 12:35:00,88.2,69.4,30.15,South,180,7.8,-999.0,54,-99.99,,,0.00,Acu-Link.com,2013-07-17 17:35:00,
2013-07-17 12:50:00,88.2,69.4,30.16,ESE,112,6.8,-999.0,54,-99.99,,,0.00,Acu-Link.com,2013-07-17 17:50:00,
2013-07-17 13:05:00,89.2,69.2,30.15,South,180,12.5,-999.0,52,-99.99,,,0.00,Acu-Link.com,2013-07-17 18:05:00,
2013-07-17 13:20:00,89.4,70.0,30.15,SSE,157,10.9,-999.0,53,-99.99,,,0.00,Acu-Link.com,2013-07-17 18:20:00,
2013-07-17 13:35:00,89.6,68.5,30.14,South,180,9.4,-999.0,50,-99.99,,,0.00,Acu-Link.com,2013-07-17 18:35:00,
2013-07-17 13:50:00,90.5,69.3,30.14,South,180,7.8,-999.0,50,-99.99,,,0.00,Acu-Link.com,2013-07-17 18:50:00,
2013-07-17 14:06:00,90.1,68.9,30.13,ESE,112,8.9,-999.0,50,-99.99,,,0.00,Acu-Link.com,2013-07-17 19:06:00,
2013-07-17 14:21:00,88.9,69.0,30.13,South,180,13.0,-999.0,52,-99.99,,,0.00,Acu-Link.com,2013-07-17 19:21:00,
2013-07-17 14:36:00,90.1,68.9,30.11,SE,135,9.9,-999.0,50,-99.99,,,0.00,Acu-Link.com,2013-07-17 19:36:00,
2013-07-17 14:51:00,90.5,67.5,30.11,South,180,9.4,-999.0,47,-99.99,,,0.00,Acu-Link.com,2013-07-17 19:51:00,
2013-07-17 15:06:00,91.0,67.9,30.11,South,180,15.5,-999.0,47,-99.99,,,0.00,Acu-Link.com,2013-07-17 20:06:00,
2013-07-17 15:21:00,89.1,68.0,30.10,SE,135,9.9,-999.0,50,-99.99,,,0.00,Acu-Link.com,2013-07-17 20:21:00,
2013-07-17 15:36:00,90.3,68.5,30.09,South,180,10.4,-999.0,49,-99.99,,,0.00,Acu-Link.com,2013-07-17 20:36:00,
2013-07-17 15:51:00,89.4,67.1,30.09,South,180,13.0,-999.0,48,-99.99,,,0.00,Acu-Link.com,2013-07-17 20:51:00,
2013-07-17 16:06:00,91.0,67.9,30.09,SSE,157,13.5,-999.0,47,-99.99,,,0.00,Acu-Link.com,2013-07-17 21:06:00,
2013-07-17 16:21:00,90.9,69.6,30.08,SSE,157,11.4,-999.0,50,-99.99,,,0.00,Acu-Link.com,2013-07-17 21:21:00,
2013-07-17 16:36:00,89.2,68.7,30.08,South,180,9.9,-999.0,51,-99.99,,,0.00,Acu-Link.com,2013-07-17 21:36:00,
2013-07-17 16:51:00,90.0,68.8,30.08,South,180,8.3,-999.0,50,-99.99,,,0.00,Acu-Link.com,2013-07-17 21:51:00,
2013-07-17 17:06:00,90.3,68.5,30.08,SSW,202,6.3,-999.0,49,-99.99,,,0.00,Acu-Link.com,2013-07-17 22:06:00,
2013-07-17 17:21:00,91.2,68.7,30.08,South,180,7.3,-999.0,48,-99.99,,,0.00,Acu-Link.com,2013-07-17 22:21:00,
2013-07-17 17:37:00,91.4,68.9,30.06,SSE,157,7.8,-999.0,48,-99.99,,,0.00,Acu-Link.com,2013-07-17 22:37:00,
2013-07-17 17:52:00,90.5,67.5,30.07,WSW,247,10.4,-999.0,47,-99.99,,,0.00,Acu-Link.com,2013-07-17 22:52:00,
2013-07-17 18:07:00,89.8,68.6,30.06,SSE,157,12.5,-999.0,50,-99.99,,,0.00,Acu-Link.com,2013-07-17 23:07:00,
2013-07-17 18:22:00,89.8,68.1,30.06,SSE,157,11.4,-999.0,49,-99.99,,,0.00,Acu-Link.com,2013-07-17 23:22:00,
2013-07-17 18:37:00,89.6,68.5,30.05,South,180,7.8,-999.0,50,-99.99,,,0.00,Acu-Link.com,2013-07-17 23:37:00,
2013-07-17 18:52:00,89.8,67.5,30.05,SSE,157,10.4,-999.0,48,-99.99,,,0.00,Acu-Link.com,2013-07-17 23:52:00,
2013-07-17 19:08:00,89.1,69.7,30.05,SSW,202,8.3,-999.0,53,-99.99,,,0.00,Acu-Link.com,2013-07-18 00:08:00,
2013-07-17 19:23:00,88.7,68.8,30.04,ESE,112,5.3,-999.0,52,-99.99,,,0.00,Acu-Link.com,2013-07-18 00:23:00,
2013-07-17 19:38:00,87.8,70.1,30.05,South,180,8.3,-999.0,56,-99.99,,,0.00,Acu-Link.com,2013-07-18 00:38:00,
2013-07-17 19:54:00,87.4,68.7,30.05,SSE,157,6.8,-999.0,54,-99.99,,,0.00,Acu-Link.com,2013-07-18 00:54:00,
2013-07-17 20:09:00,86.0,69.5,30.05,SSW,202,6.3,-999.0,58,-99.99,,,0.00,Acu-Link.com,2013-07-18 01:09:00,
2013-07-17 20:24:00,84.9,69.4,30.05,SSW,202,5.8,-999.0,60,-99.99,,,0.00,Acu-Link.com,2013-07-18 01:24:00,
2013-07-17 20:39:00,83.7,69.3,30.04,SSE,157,5.8,-999.0,62,-99.99,,,0.00,Acu-Link.com,2013-07-18 01:39:00,
2013-07-17 20:54:00,82.4,69.0,30.04,South,180,5.3,-999.0,64,-99.99,,,0.00,Acu-Link.com,2013-07-18 01:54:00,
2013-07-17 21:09:00,81.5,69.0,30.04,South,180,5.3,-999.0,66,-99.99,,,0.00,Acu-Link.com,2013-07-18 02:09:00,
2013-07-17 21:25:00,80.4,68.8,30.04,South,180,3.7,-999.0,68,-99.99,,,0.00,Acu-Link.com,2013-07-18 02:25:00,
2013-07-17 21:40:00,79.2,68.6,30.04,South,180,4.2,-999.0,70,-99.99,,,0.00,Acu-Link.com,2013-07-18 02:40:00,
2013-07-17 21:55:00,78.3,68.5,30.04,SE,135,3.7,-999.0,72,-99.99,,,0.00,Acu-Link.com,2013-07-18 02:55:00,
2013-07-17 22:10:00,77.7,67.9,30.04,SSE,157,4.2,-999.0,72,-99.99,,,0.00,Acu-Link.com,2013-07-18 03:10:00,
2013-07-17 22:25:00,77.0,67.7,30.04,South,180,2.7,-999.0,73,-99.99,,,0.00,Acu-Link.com,2013-07-18 03:25:00,
2013-07-17 22:41:00,76.8,67.5,30.04,SSE,157,3.7,-999.0,73,-99.99,,,0.00,Acu-Link.com,2013-07-18 03:41:00,
2013-07-17 22:56:00,76.6,67.3,30.04,SSE,157,4.2,-999.0,73,-99.99,,,0.00,Acu-Link.com,2013-07-18 03:56:00,
2013-07-17 23:11:00,76.3,67.0,30.04,SSE,157,3.2,-999.0,73,-99.99,,,0.00,Acu-Link.com,2013-07-18 04:11:00,
2013-07-17 23:26:00,76.1,67.2,30.04,South,180,4.7,-999.0,74,-99.99,,,0.00,Acu-Link.com,2013-07-18 04:26:00,
2013-07-17 23:42:00,76.1,66.8,30.03,SSE,157,3.2,-999.0,73,-99.99,,,0.00,Acu-Link.com,2013-07-18 04:42:00,
2013-07-17 23:57:00,75.9,66.6,30.03,South,180,3.2,-999.0,73,-99.99,,,0.00,Acu-Link.com,2013-07-18 04:57:00,